• In France
  • List of Countries
  • For 7 days
  • Water Temperature
  • Satellite Maps
  • Weather Map
  • Weather Widgets
  • user-avatar
    Login

    Hourly Weather Hidib

    Today, 22 August, Wednesday

    Time Temperature Precipitation Wind Pressure Humidity
    00:00 +10°C° 0 mm 2 mps 606 mmHg 64%
    01:00 +9°C° 0 mm 2 mps 606 mmHg 63%
    02:00 +9°C° 0 mm 2 mps 605 mmHg 62%
    03:00 +9°C° 0 mm 2 mps 605 mmHg 61%
    04:00 +10°C° 0 mm 2 mps 606 mmHg 62%
    05:00 +10°C° 0 mm 2 mps 606 mmHg 62%
    06:00 +12°C° 0 mm 1 mps 606 mmHg 63%
    07:00 +14°C° 0.1 mm 1 mps 607 mmHg 59%
    08:00 +15°C° 0.1 mm 1 mps 608 mmHg 55%
    09:00 +18°C° 0.1 mm 1 mps 608 mmHg 51%
    10:00 +19°C° 0.1 mm 1 mps 608 mmHg 50%
    11:00 +19°C° 0.1 mm 2 mps 609 mmHg 49%
    12:00 +20°C° 0.1 mm 2 mps 609 mmHg 47%
    13:00 +20°C° 0.3 mm 2 mps 609 mmHg 50%
    14:00 +20°C° 0.3 mm 2 mps 608 mmHg 53%
    15:00 +20°C° 0.3 mm 2 mps 608 mmHg 55%
    16:00 +19°C° 0.4 mm 2 mps 608 mmHg 61%
    17:00 +19°C° 0.4 mm 1 mps 608 mmHg 67%
    18:00 +18°C° 0.4 mm 1 mps 607 mmHg 73%
    19:00 +15°C° 0.1 mm 1 mps 607 mmHg 76%
    20:00 +14°C° 0.1 mm 1 mps 607 mmHg 80%
    21:00 +13°C° 0.1 mm 1 mps 607 mmHg 83%
    22:00 +13°C° 0 mm 1 mps 607 mmHg 83%
    23:00 +13°C° 0 mm 1 mps 607 mmHg 84%

    Tomorrow, 23 August, Thursday

    Time Temperature Precipitation Wind Pressure Humidity
    00:00 +12°C° 0 mm 1 mps 607 mmHg 84%
    01:00 +12°C° 0 mm 1 mps 607 mmHg 84%
    02:00 +12°C° 0 mm 1 mps 606 mmHg 84%
    03:00 +11°C° 0 mm 1 mps 606 mmHg 84%
    04:00 +12°C° 0 mm 1 mps 607 mmHg 83%
    05:00 +12°C° 0 mm 1 mps 607 mmHg 83%
    06:00 +12°C° 0 mm 1 mps 607 mmHg 82%
    07:00 +14°C° 0 mm 1 mps 608 mmHg 75%
    08:00 +16°C° 0 mm 1 mps 609 mmHg 68%
    09:00 +19°C° 0 mm 1 mps 610 mmHg 61%
    10:00 +19°C° 0.1 mm 1 mps 610 mmHg 60%
    11:00 +19°C° 0.1 mm 2 mps 610 mmHg 58%
    12:00 +19°C° 0.1 mm 2 mps 610 mmHg 56%
    13:00 +19°C° 0.1 mm 2 mps 610 mmHg 57%
    14:00 +19°C° 0.1 mm 2 mps 610 mmHg 58%
    15:00 +19°C° 0.1 mm 2 mps 609 mmHg 59%
    16:00 +19°C° 0.1 mm 1 mps 609 mmHg 62%
    17:00 +18°C° 0.1 mm 1 mps 609 mmHg 66%
    18:00 +16°C° 0.1 mm 1 mps 608 mmHg 70%
    19:00 +15°C° 0 mm 1 mps 608 mmHg 73%
    20:00 +14°C° 0 mm 1 mps 608 mmHg 76%
    21:00 +12°C° 0 mm 1 mps 608 mmHg 79%
    22:00 +12°C° 0 mm 1 mps 608 mmHg 79%
    23:00 +12°C° 0 mm 1 mps 608 mmHg 78%

    Day after tomorrow, 24 August, Friday

    Time Temperature Precipitation Wind Pressure Humidity
    00:00 +11°C° 0 mm 1 mps 608 mmHg 77%
    01:00 +10°C° 0 mm 2 mps 607 mmHg 77%
    02:00 +10°C° 0 mm 2 mps 607 mmHg 77%
    03:00 +10°C° 0 mm 2 mps 607 mmHg 77%
    04:00 +10°C° 0 mm 2 mps 607 mmHg 77%
    05:00 +10°C° 0 mm 2 mps 608 mmHg 77%
    06:00 +12°C° 0 mm 2 mps 608 mmHg 78%
    07:00 +14°C° 0 mm 2 mps 609 mmHg 71%
    08:00 +16°C° 0 mm 2 mps 609 mmHg 64%
    09:00 +18°C° 0 mm 2 mps 610 mmHg 56%
    10:00 +19°C° 0 mm 2 mps 610 mmHg 55%
    11:00 +20°C° 0 mm 2 mps 610 mmHg 53%
    12:00 +21°C° 0 mm 2 mps 610 mmHg 51%
    13:00 +21°C° 0.1 mm 2 mps 610 mmHg 52%
    14:00 +21°C° 0.1 mm 2 mps 610 mmHg 52%
    15:00 +21°C° 0.1 mm 2 mps 610 mmHg 53%
    16:00 +19°C° 0.1 mm 2 mps 609 mmHg 57%
    17:00 +18°C° 0.1 mm 2 mps 609 mmHg 62%
    18:00 +18°C° 0.1 mm 1 mps 608 mmHg 67%
    19:00 +16°C° 0 mm 1 mps 608 mmHg 67%
    20:00 +14°C° 0 mm 1 mps 608 mmHg 67%
    21:00 +13°C° 0 mm 1 mps 607 mmHg 68%
    22:00 +12°C° 0 mm 2 mps 607 mmHg 67%
    23:00 +12°C° 0 mm 2 mps 607 mmHg 66%

    25 August, Saturday

    Time Temperature Precipitation Wind Pressure Humidity
    00:00 +12°C° 0 mm 2 mps 606 mmHg 64%
    01:00 +12°C° 0 mm 2 mps 606 mmHg 66%
    02:00 +10°C° 0 mm 2 mps 606 mmHg 68%
    03:00 +10°C° 0 mm 2 mps 606 mmHg 69%
    04:00 +11°C° 0 mm 1 mps 606 mmHg 70%
    05:00 +12°C° 0 mm 1 mps 606 mmHg 72%
    06:00 +12°C° 0 mm 1 mps 606 mmHg 73%
    07:00 +14°C° 0 mm 1 mps 607 mmHg 67%
    08:00 +18°C° 0 mm 1 mps 608 mmHg 61%
    09:00 +20°C° 0 mm 1 mps 609 mmHg 55%
    10:00 +20°C° 0.2 mm 2 mps 609 mmHg 54%
    11:00 +20°C° 0.2 mm 2 mps 609 mmHg 54%
    12:00 +21°C° 0.2 mm 2 mps 609 mmHg 53%
    13:00 +21°C° 0.6 mm 2 mps 609 mmHg 54%
    14:00 +21°C° 0.6 mm 2 mps 609 mmHg 55%
    15:00 +20°C° 0.6 mm 2 mps 609 mmHg 56%
    16:00 +19°C° 0.2 mm 2 mps 608 mmHg 60%
    17:00 +19°C° 0.2 mm 1 mps 608 mmHg 64%
    18:00 +19°C° 0.2 mm 1 mps 608 mmHg 67%
    19:00 +16°C° 0 mm 1 mps 607 mmHg 70%
    20:00 +14°C° 0 mm 1 mps 607 mmHg 73%
    21:00 +13°C° 0 mm 2 mps 606 mmHg 76%
    22:00 +12°C° 0 mm 2 mps 606 mmHg 75%
    23:00 +12°C° 0 mm 2 mps 606 mmHg 74%

    26 August, Sunday

    Time Temperature Precipitation Wind Pressure Humidity
    00:00 +12°C° 0 mm 2 mps 606 mmHg 72%
    01:00 +10°C° 0 mm 2 mps 605 mmHg 70%
    02:00 +10°C° 0 mm 2 mps 605 mmHg 68%
    03:00 +10°C° 0 mm 2 mps 605 mmHg 66%
    04:00 +10°C° 0 mm 2 mps 605 mmHg 64%
    05:00 +10°C° 0 mm 2 mps 605 mmHg 62%
    06:00 +10°C° 0 mm 2 mps 605 mmHg 60%
    07:00 +14°C° 0 mm 2 mps 606 mmHg 54%
    08:00 +17°C° 0 mm 2 mps 607 mmHg 48%
    09:00 +19°C° 0 mm 2 mps 608 mmHg 41%
    10:00 +20°C° 0 mm 2 mps 608 mmHg 40%
    11:00 +23°C° 0 mm 2 mps 608 mmHg 38%
    12:00 +24°C° 0 mm 2 mps 608 mmHg 37%
    13:00 +24°C° 0 mm 2 mps 608 mmHg 37%
    14:00 +24°C° 0 mm 2 mps 608 mmHg 37%
    15:00 +24°C° 0 mm 2 mps 607 mmHg 38%
    16:00 +21°C° 0 mm 2 mps 607 mmHg 44%
    17:00 +21°C° 0 mm 1 mps 606 mmHg 49%
    18:00 +19°C° 0 mm 1 mps 605 mmHg 55%
    19:00 +18°C° 0 mm 1 mps 605 mmHg 56%
    20:00 +15°C° 0 mm 1 mps 605 mmHg 56%
    21:00 +13°C° 0 mm 1 mps 604 mmHg 56%
    22:00 +13°C° 0 mm 1 mps 604 mmHg 53%
    23:00 +13°C° 0 mm 2 mps 604 mmHg 49%

    27 August, Monday

    Time Temperature Precipitation Wind Pressure Humidity
    00:00 +13°C° 0 mm 2 mps 604 mmHg 46%
    01:00 +13°C° 0 mm 2 mps 604 mmHg 45%
    02:00 +12°C° 0 mm 2 mps 604 mmHg 44%
    03:00 +12°C° 0 mm 2 mps 603 mmHg 43%
    04:00 +13°C° 0 mm 1 mps 604 mmHg 46%
    05:00 +13°C° 0 mm 1 mps 604 mmHg 49%
    06:00 +13°C° 0 mm 1 mps 604 mmHg 52%
    07:00 +15°C° 0 mm 1 mps 605 mmHg 50%
    08:00 +18°C° 0 mm 1 mps 606 mmHg 47%
    09:00 +20°C° 0 mm 1 mps 607 mmHg 45%
    10:00 +20°C° 0 mm 2 mps 607 mmHg 44%
    11:00 +21°C° 0 mm 2 mps 607 mmHg 44%
    12:00 +23°C° 0 mm 2 mps 607 mmHg 44%
    13:00 +21°C° 0.6 mm 2 mps 607 mmHg 45%
    14:00 +21°C° 0.6 mm 2 mps 607 mmHg 47%
    15:00 +21°C° 0.6 mm 2 mps 606 mmHg 48%
    16:00 +20°C° 0.3 mm 2 mps 606 mmHg 53%
    17:00 +18°C° 0.3 mm 2 mps 606 mmHg 58%
    18:00 +18°C° 0.3 mm 1 mps 606 mmHg 63%
    19:00 +16°C° 0.3 mm 1 mps 605 mmHg 66%
    20:00 +14°C° 0.3 mm 1 mps 605 mmHg 69%
    21:00 +13°C° 0.3 mm 1 mps 605 mmHg 72%
    22:00 +13°C° 0 mm 1 mps 605 mmHg 70%
    23:00 +12°C° 0 mm 1 mps 605 mmHg 69%
    Show more